星链-1993 (STARLINK-1993 )

导读

STARLINK-1993是美国SpaceX星链星座的一员,于2021年2月4日发射升空,属于星链第一代近地轨道卫星。它运行在约550公里高度的近地轨道,配备氪离子推进系统与自主碰撞规避装置,依托星链星座的全球组网,为偏远地区提供高速低时延宽带互联网接入服务,是星链全球覆盖计划中的重要组成单元。

基本信息
目录编号:
47588
目录名称:
STARLINK-1993
国际标识:
2021-009AS
轨道中心:
EARTH
卫星名称:
星链-1993
卫星全名:
星链-1993 (STARLINK-1993 )
卫星状态:
已陨落 最后检测时间 2026-06-04
发射日期:
2021-02-04 UTC
国别 :
美国 (US)
星等 :
--
轨道信息
数据来源 国际轨道数据
星历时间: 2026-06-04T15:26:45+0800
轨道信息已过期14天
半长轴: 6542.69km
偏心率: 0.0009954
轨道倾角: 53.018°
近地点辐角 304.008°
升交点赤经 261.127°
平近点角 56.003°
近地点: 158.04km
远地点: 171.066km
周期: 87.780分钟
每日圈数: 16.4047
详细信息
固有亮度:
5
最大亮度:
2.5
卫星平台:
Starlink V1.0
覆盖范围:
全球
运营商:
太空探索技术公司
运营商所在国:
美国
制造商(研发单位):
太空探索技术公司
制造商所在国:
美国
使用方式:
暂无
卫星简介
星链(Starlink)计划是由太空探索技术公司(SpaceX)提出的一个巨型低轨卫星互联网星座项目,计划在2019年至2024年间在太空搭建由约1.2万颗卫星组成的“星链”网络,其中1584颗将部署在地球上空550千米处的近地轨道,并从2020年开始工作。该卫星仍在工作。